{"data":{"norad_id":54867,"epoch":"2026-09-20T06:05:24.187488Z","epoch_age_seconds":114573,"freshness":"FRESH","line1":"1 54867U 22177AZ  26263.25375217  .00000974  00000+0  44903-4 0  9993","line2":"2 54867  43.0021 103.0374 0000917 253.2934 106.7817 15.27580481206846","mean_motion":15.27580481,"eccentricity":9.17e-5,"inclination_deg":43.0021,"raan_deg":103.0374,"arg_perigee_deg":253.2934,"mean_anomaly_deg":106.7817,"bstar":4.4903e-5,"rev_number":20684,"period_min":94.266719031218,"perigee_km":482.41848512006,"apogee_km":483.67682638592,"semimajor_km":6861.184655753,"source":"CELESTRAK","updated_at":"2026-09-21T09:00:33.161933Z"}}